Regional Weather Roundup
Issued by NWS

Home | Current Version | Previous Version | Text Only | Print | Product List | Glossary On
Versions: 1 2 3 4 5 6 7 8 9 10 11 12 13 14 15 16 17 18 19 20 21 22 23 24 25 26 27 28 29 30 31 32 33 34 35 36 37 38 39 40 41 42 43 44 45 46 47 48 49 50
000
ASUS45 KBOU 021207
RWRCO

WEATHER ROUNDUP FOR COLORADO
NATIONAL WEATHER SERVICE DENVER/BOULDER CO
600 AM MDT TUE JUN 02 2015

NOTE: "FAIR" INDICATES FEW OR NO CLOUDS BELOW 12000 FEET WITH NO
SIGNIFICANT WEATHER AND/OR OBSTRUCTIONS TO VISIBILITY.

COZ001>005-013-030-031-021300-
...NORTHWEST COLORADO...

CITY           SKY/WX    TMP DP  RH WIND       PRES   REMARKS
CRAIG          PTCLDY    42  40  92 SE3       30.06R
HAYDEN         PTCLDY    46  36  66 CALM      30.08R
MEEKER         PTCLDY    45  37  73 CALM      30.08R
MOUNT WERNER   NOT AVBL
STEAMBOAT SPGS PTCLDY    42  38  86 CALM      30.10R
WALDEN         PTCLDY    36  32  87 SE5       30.16R
$$

COZ006>008-011-021300-
...WEST CENTRAL VALLEYS...

CITY           SKY/WX    TMP DP  RH WIND       PRES   REMARKS
GRAND JUNCTION MOCLDY    60  32  34 E10       29.98R
MONTROSE       PTCLDY    58  26  29 VRB5      30.09R
EAGLE          CLEAR     55  52  88 CALM      30.15R
RIFLE          PTCLDY    46  40  79 E5        30.04R
DELTA          PTCLDY    54  35  49 N6        30.05R
NUCLA          PTCLDY    55  23  28 E6        30.13R
$$

COZ017>023-064>068-021300-
...SOUTHWEST COLORADO...

CITY           SKY/WX    TMP DP  RH WIND       PRES   REMARKS
DURANGO        PTCLDY    44  37  76 N5        30.19R
CORTEZ         CLEAR     49  32  52 E7        30.13R
PAGOSA SPRINGS PTCLDY    44  37  74 CALM      30.26S
TELLURIDE      PTCLDY    49  22  34 SE6       30.33S
WOLF CREEK PAS NOT AVBL
$$

COZ009-010-012-014-032>034-037-058>063-021300-
...CENTRAL COLORADO...

CITY           SKY/WX    TMP DP  RH WIND       PRES   REMARKS
ASPEN          PTCLDY    45  32  60 SW8       30.18R
BUENA VISTA    PTCLDY    40  34  81 W7        30.23S
COPPER MTN     CLEAR     46  16  29 SW14G20   30.44S
BERTHOUD PASS  FAIR      37  32  81 W21G35    30.46S
COTTONWOOD PAS NOT AVBL
GUNNISON       CLEAR     37  34  87 CALM      30.28R
KREMMLING      CLEAR     37  34  87 CALM      30.18R
LEADVILLE      CLEAR     36  30  79 CALM      30.31R
MONARCH PASS   CLEAR     39  28  65 SW24      30.54S
SALIDA         PTCLDY    50  39  66 N6        30.27S
SUNLIGHT       PTCLDY    46  23  39 CALM      30.36S
WILKERSON PASS PTCLDY    43  32  65 SW10G17   30.42R
$$

COZ069>075-021300-
...SAN LUIS VALLEY/SANGRE DE CRISTO MOUNTAINS...

CITY           SKY/WX    TMP DP  RH WIND       PRES   REMARKS
ALAMOSA        CLEAR     46  39  76 W5        30.22R
LA VETA PASS   PTCLDY   N/A N/A N/A MISG      30.35S
SAGUACHE       PTCLDY    43  37  81 N10       30.26R
$$

COZ035-036-038>040-021300-
...NORTHERN COLORADO FRONT RANGE...

CITY           SKY/WX    TMP DP  RH WIND       PRES   REMARKS
DENVER INTL AP PTCLDY    53  50  89 W8        30.00R
DMNS CITY PARK   N/A     56  49  78 NW1       30.00R
AURORA         MOCLDY    53  48  81 W6        30.02R
FRONT RANGE AP CLEAR     52  50  93 MISG      30.01R
ERIE MUNI ARPT NOT AVBL
BOULDER MUN AP PTCLDY    54  48  82 SW3       30.00R
CENTENNIAL     MOCLDY    58  43  57 W5        30.01S
BROOMFIELD     PTCLDY    54  50  87 CALM      30.02R
FORT COLLINS   PTCLDY    54  48  82 CALM      30.00R
LONGMONT       PTCLDY    51  46  83 CALM      30.01R
$$

COZ041-046-047-076>085-087-088-021300-
...PIKES PEAK/PALMER DIVIDE AND SOUTHERN FOOTHILLS...

CITY           SKY/WX    TMP DP  RH WIND       PRES   REMARKS
COLO. SPRINGS  MOCLDY    51  45  79 N8G23     30.06S
A. F. ACADEMY  PTCLDY    49  42  78 VRB6      30.08R
ELLICOTT       PTCLDY   N/A N/A N/A N3        30.04S
FALCON         PTCLDY    55  41  59 NW8       30.10S
FORT CARSON    NOT AVBL
LIMON          CLEAR     53  48  83 SE7       30.00S
MONUMENT HILL  CLEAR     54  39  58 MISG      30.10S
TRINIDAD       CLEAR     59  43  55 W12       30.05R
$$

COZ042>045-048>051-090-091-021300-
...NORTHEAST COLORADO...

CITY           SKY/WX    TMP DP  RH WIND       PRES   REMARKS
GREELEY ARPT   CLOUDY    54  54 100 N6        29.97S VSB 1/4
AKRON          PTCLDY    55  53  93 SE13      29.97F
BURLINGTON     MOCLDY    59  56  89 E15       29.97F
WRAY           PTCLDY    58  54  85 SE14      29.94F
STERLING       PTCLDY    59  54  82 S10G20    29.94R
HOLYOKE        NOT AVBL
FORT MORGAN    CLOUDY    59  57  92 SE7       29.96S
$$

COZ086-089-092>099-021300-
...SOUTHEAST COLORADO...

CITY           SKY/WX    TMP DP  RH WIND       PRES   REMARKS
PUEBLO         PTCLDY    52  49  89 NW5       29.98R
LA JUNTA       CLEAR     59  53  80 MISG      29.95R
LAMAR          PTCLDY    56  54  93 CALM      29.93R
SPRINGFIELD      N/A     54  50  86 SW5       29.96R
$$


USA.gov is the U.S. government's official web portal to all federal, state and local government web resources and services.